EW7966 Weather Reports


time (UTC)temp
C
wind
direction
speed
KPH
gust
KPH
rain 1hr
cm
rain 24hr
cm
rain mn
cm
humidity
%
barometer
mb
20260903120011 15 157 9.7 14.5 0.00 0.00 0.00 49 1017.3
20260903120007 15 157 9.7 14.5 0.00 0.00 0.00 49 1002.4
20260903115505 14 150 6.4 14.5 0.00 0.00 0.00 51 1017.3
20260903115009 13 188 1.6 6.4 0.00 0.00 0.00 54 1017.2
20260903114505 14 188 1.6 6.4 0.00 0.00 0.00 53 1017.2
20260903114010 14 188 4.8 8.0 0.00 0.00 0.00 53 1017.2
20260903113505 14 188 4.8 11.3 0.00 0.00 0.00 54 1017.3
20260903113009 13 161 6.4 12.9 0.00 0.00 0.00 54 1017.3
20260903113007 13 161 6.4 12.9 0.00 0.00 0.00 54 1002.3
20260903112006 13 142 9.7 14.5 0.00 0.00 0.00 58 1017.3
20260903111505 13 138 9.7 14.5 0.00 0.00 0.00 59 1017.4
20260903111503 13 138 9.7 14.5 0.00 0.00 0.00 59 1002.4
20260903111007 13 128 1.6 3.2 0.00 0.00 0.00 59 1017.3
20260903110506 12 128 0.0 4.8 0.00 0.00 0.00 61 1017.2
20260903110007 12 128 1.6 4.8 0.00 0.00 0.00 63 1017.1
20260903110005 12 128 1.6 4.8 0.00 0.00 0.00 63 1002.1
20260903105505 12 128 1.6 6.4 0.00 0.00 0.00 64 1017.1
20260903104505 12 128 4.8 6.4 0.00 0.00 0.00 66 1017.1
20260903103505 12 128 3.2 4.8 0.00 0.00 0.00 70 1017.0
20260903103007 12 128 0.0 3.2 0.00 0.00 0.00 69 1017.0
20260903103004 12 128 0.0 3.2 0.00 0.00 0.00 69 1001.9
20260903102506 12 128 0.0 3.2 0.00 0.00 0.00 68 1017.1
20260903102006 13 128 0.0 6.4 0.00 0.00 0.00 67 1017.2
20260903101507 13 128 4.8 6.4 0.00 0.00 0.00 66 1017.2
20260903101505 13 128 4.8 6.4 0.00 0.00 0.00 66 1002.0
20260903101007 13 128 4.8 6.4 0.00 0.00 0.00 65 1017.3
20260903100506 14 240 0.0 4.8 0.00 0.00 0.00 64 1017.2
20260903100006 13 240 3.2 6.4 0.00 0.00 0.00 66 1017.1
20260903095505 13 240 4.8 6.4 0.00 0.00 0.00 67 1017.0
20260903095006 13 240 3.2 8.0 0.00 0.00 0.00 68 1017.0
20260903094505 13 207 1.6 12.9 0.00 0.00 0.00 68 1017.0
20260903094503 13 207 0.0 12.9 0.00 0.00 0.00 68 1001.8
20260903094006 13 207 6.4 12.9 0.00 0.00 0.00 69 1017.1
20260903093505 12 189 4.8 8.0 0.00 0.00 0.00 70 1017.2
20260903093006 12 189 4.8 9.7 0.00 0.00 0.00 70 1002.0
20260903092505 12 198 6.4 11.3 0.00 0.00 0.00 70 1017.2
20260903092007 12 229 4.8 11.3 0.00 0.00 0.00 69 1017.2
20260903091506 13 213 6.4 9.7 0.00 0.00 0.00 70 1017.1
20260903091005 12 213 6.4 11.3 0.00 0.00 0.00 69 1017.1
20260903090505 13 199 3.2 9.7 0.00 0.00 0.00 69 1017.3
20260903090010 12 199 4.8 9.7 0.00 0.00 0.00 71 1001.8
20260903085506 12 199 4.8 6.4 0.00 0.00 0.00 70 1017.3
20260903085005 12 199 0.0 3.2 0.00 0.00 0.00 69 1017.1
20260903084506 13 199 3.2 3.2 0.00 0.00 0.00 69 1016.9
20260903084503 13 199 1.6 3.2 0.00 0.00 0.00 69 1001.5
20260903084007 13 199 1.6 3.2 0.00 0.00 0.00 69 1017.0
20260903083505 13 199 1.6 4.8 0.00 0.00 0.00 69 1017.1
20260903083005 13 199 1.6 6.4 0.00 0.00 0.00 69 1001.7
20260903082505 13 199 4.8 6.4 0.00 0.00 0.00 70 1017.1
20260903082007 12 199 4.8 6.4 0.00 0.00 0.00 71 1017.1
20260903081504 12 199 4.8 6.4 0.00 0.00 0.00 71 1001.9
20260903081006 12 199 4.8 6.4 0.00 0.00 0.00 70 1017.3
20260903080505 13 199 3.2 6.4 0.00 0.00 0.00 69 1017.4
20260903080008 13 199 3.2 6.4 0.00 0.00 0.00 69 1017.3
20260903080004 13 199 1.6 6.4 0.00 0.00 0.00 69 1001.9
20260903075505 13 199 4.8 6.4 0.00 0.00 0.00 69 1017.3
20260903075006 13 199 4.8 6.4 0.00 0.00 0.00 69 1017.4
20260903074505 13 199 4.8 8.0 0.00 0.00 0.00 68 1017.6
20260903074503 13 199 3.2 8.0 0.00 0.00 0.00 68 1002.2
20260903074005 13 199 3.2 6.4 0.00 0.00 0.00 68 1017.6
20260903073505 13 199 3.2 8.0 0.00 0.00 0.00 68 1017.5
20260903073006 13 199 6.4 8.0 0.00 0.00 0.00 67 1017.5
20260903072505 13 199 4.8 8.0 0.00 0.00 0.00 67 1017.6
20260903072006 13 199 6.4 8.0 0.00 0.00 0.00 67 1017.6
20260903071509 13 205 3.2 8.0 0.00 0.00 0.00 67 1002.2
20260903071505 13 205 4.8 8.0 0.00 0.00 0.00 67 1017.6
20260903071006 13 220 4.8 8.0 0.00 0.00 0.00 67 1017.6
20260903070505 14 211 4.8 6.4 0.00 0.00 0.00 66 1017.6
20260903070008 14 211 3.2 4.8 0.00 0.00 0.00 66 1017.6
20260903070005 14 211 3.2 4.8 0.00 0.00 0.00 66 1002.2
20260903065505 14 211 0.0 4.8 0.00 0.00 0.00 67 1017.6
20260903065006 14 211 1.6 6.4 0.00 0.00 0.00 67 1017.6
20260903064505 14 211 4.8 6.4 0.00 0.00 0.00 66 1017.6
20260903064503 14 211 4.8 6.4 0.00 0.00 0.00 66 1002.1
20260903064006 14 211 3.2 9.7 0.00 0.00 0.00 67 1017.7
20260903063506 14 222 6.4 9.7 0.00 0.00 0.00 68 1017.8
20260903063006 13 223 6.4 11.3 0.00 0.00 0.00 69 1018.0
20260903063003 13 223 4.8 11.3 0.00 0.00 0.00 69 1002.5
20260903062505 13 222 4.8 8.0 0.00 0.00 0.00 70 1017.9
20260903062006 13 223 4.8 8.0 0.00 0.00 0.00 70 1017.8
20260903061507 13 223 4.8 8.0 0.00 0.00 0.00 69 1002.3
20260903061007 13 103 3.2 11.3 0.00 0.00 0.00 67 1017.5
20260903060506 13 103 6.4 12.9 0.00 0.00 0.00 67 1017.5
20260903060008 14 82 4.8 11.3 0.00 0.00 0.00 65 1002.1
20260903055505 14 294 4.8 8.0 0.00 0.00 0.00 64 1017.7
20260903055005 15 294 6.4 8.0 0.00 0.00 0.00 64 1017.8
20260903054502 15 294 4.8 8.0 0.00 0.00 0.00 63 1002.3
20260903053504 15 294 1.6 4.8 0.00 0.00 0.00 62 1017.6
20260903053005 15 294 1.6 4.8 0.00 0.00 0.00 62 1017.6
20260903053003 15 294 1.6 4.8 0.00 0.00 0.00 62 1002.1
20260903052006 15 294 1.6 3.2 0.00 0.00 0.00 62 1017.7
20260903051505 15 294 0.0 3.2 0.00 0.00 0.00 62 1017.6
20260903051502 15 294 0.0 3.2 0.00 0.00 0.00 62 1002.0
20260903051006 15 294 0.0 3.2 0.00 0.00 0.00 61 1017.6
20260903050500 16 294 1.6 3.2 0.00 0.00 0.00 59 1017.6
20260903050006 16 294 0.0 1.6 0.00 0.00 0.00 60 1017.6
20260903045506 16 294 0.0 1.6 0.00 0.00 0.00 59 1017.8
20260903045004 16 294 0.0 4.8 0.00 0.00 0.00 59 1017.9
20260903044504 16 294 0.0 4.8 0.00 0.00 0.00 59 1018.0
20260903044005 16 294 1.6 6.4 0.00 0.00 0.00 59 1018.0
20260903043006 16 294 8.0 12.9 0.00 0.00 0.00 59 1002.5
20260903042504 16 310 4.8 6.4 0.00 0.00 0.00 59 1017.9
20260903042006 17 9 1.6 8.0 0.00 0.00 0.00 58 1017.9
20260903041558 17 5 0.0 8.0 0.00 0.00 0.00 57 1002.1
20260903041005 17 23 4.8 8.0 0.00 0.00 0.00 56 1017.7
20260903040504 18 23 4.8 8.0 0.00 0.00 0.00 54 1017.6
20260903040004 18 5 1.6 8.0 0.00 0.00 0.00 53 1001.8
20260903034504 20 343 1.6 8.0 0.00 0.00 0.00 48 1017.6
20260903034502 20 343 1.6 8.0 0.00 0.00 0.00 48 1001.9
20260903034006 20 332 3.2 17.7 0.00 0.00 0.00 47 1017.8
20260903033503 20 5 1.6 19.3 0.00 0.00 0.00 46 1017.8
20260903033004 20 5 4.8 22.5 0.00 0.00 0.00 45 1017.7
20260903033002 20 5 4.8 22.5 0.00 0.00 0.00 45 1001.9
20260903032504 20 319 9.7 22.5 0.00 0.00 0.00 45 1017.5
20260903032005 21 311 12.9 25.7 0.00 0.00 0.00 43 1017.4
20260903031505 21 329 9.7 32.2 0.00 0.00 0.00 41 1001.5
20260903031008 22 301 19.3 32.2 0.00 0.00 0.00 37 1017.0
20260903030504 22 290 16.1 22.5 0.00 0.00 0.00 35 1016.9
20260903030003 22 213 1.6 4.8 0.00 0.00 0.00 32 1001.1
20260903025504 23 213 1.6 8.0 0.00 0.00 0.00 31 1016.7
20260903025005 23 213 4.8 8.0 0.00 0.00 0.00 30 1016.6
20260903024504 23 213 1.6 4.8 0.00 0.00 0.00 30 1016.5
20260903024005 23 213 3.2 6.4 0.00 0.00 0.00 29 1016.4
20260903023504 24 213 3.2 8.0 0.00 0.00 0.00 28 1016.3
20260903023003 24 213 1.6 11.3 0.00 0.00 0.00 28 1000.5
20260903022005 24 205 8.0 12.9 0.00 0.00 0.00 28 1016.1
20260903021503 23 302 4.8 12.9 0.00 0.00 0.00 29 1000.2
20260903021006 23 204 6.4 11.3 0.00 0.00 0.00 31 1015.9
20260903020007 23 273 3.2 6.4 0.00 0.00 0.00 32 1015.9
20260903020003 23 273 3.2 6.4 0.00 0.00 0.00 32 1000.2
20260903015504 23 302 3.2 9.7 0.00 0.00 0.00 32 1015.8
20260903015006 23 201 6.4 12.9 0.00 0.00 0.00 30 1015.6
20260903014504 22 192 6.4 12.9 0.00 0.00 0.00 32 1015.4
20260903014502 22 192 6.4 12.9 0.00 0.00 0.00 32 999.6
20260903014004 21 168 6.4 11.3 0.00 0.00 0.00 34 1015.3
20260903013505 22 129 0.0 4.8 0.00 0.00 0.00 37 1015.4
20260903013006 22 129 3.2 6.4 0.00 0.00 0.00 33 1015.4
20260903013002 22 129 1.6 6.4 0.00 0.00 0.00 33 999.5
20260903012504 22 129 1.6 6.4 0.00 0.00 0.00 32 1015.3
20260903012006 23 129 0.0 1.6 0.00 0.00 0.00 34 1015.3
20260903011503 23 129 0.0 3.2 0.00 0.00 0.00 35 999.4
20260903011007 23 129 1.6 6.4 0.00 0.00 0.00 32 1015.3
20260903010504 23 129 4.8 8.0 0.00 0.00 0.00 33 1015.3
20260903010007 24 129 6.4 12.9 0.00 0.00 0.00 32 1015.3
20260903010003 24 129 4.8 12.9 0.00 0.00 0.00 32 999.4
20260903005504 24 129 4.8 19.3 0.00 0.00 0.00 32 1015.4
20260903005006 25 120 11.3 22.5 0.00 0.00 0.00 31 1015.4
20260903004502 25 119 17.7 22.5 0.00 0.00 0.00 30 999.4
20260903004006 25 157 11.3 20.9 0.00 0.00 0.00 31 1015.2
20260903003505 25 136 12.9 24.1 0.00 0.00 0.00 31 1015.2
20260903003005 26 104 14.5 24.1 0.00 0.00 0.00 30 1015.2
20260903003002 26 104 14.5 24.1 0.00 0.00 0.00 30 999.3
20260903002504 26 92 16.1 22.5 0.00 0.00 0.00 30 1015.2
20260903002005 26 93 16.1 27.4 0.00 0.00 0.00 30 1015.2
20260903001505 26 106 20.9 27.4 0.00 0.00 0.00 30 1015.2
20260903001502 26 106 19.3 27.4 0.00 0.00 0.00 30 999.3
20260903001001 26 105 17.7 27.4 0.00 0.00 0.00 29 1015.2
20260903000505 26 103 19.3 27.4 0.00 0.00 0.00 29 1015.3
20260903000007 26 104 17.7 29.0 0.00 0.00 0.00 30 1015.3
20260903000004 26 104 16.1 29.0 0.00 0.00 0.00 30 999.4
20260902235504 26 115 22.5 30.6 0.00 0.00 0.00 30 1015.4
20260902235005 26 87 19.3 30.6 0.00 0.00 0.00 29 1015.4
20260902234504 27 107 17.7 29.0 0.00 0.00 0.00 29 1015.4
20260902234502 27 107 16.1 29.0 0.00 0.00 0.00 29 999.5
20260902234005 27 130 19.3 29.0 0.00 0.00 0.00 27 1015.4
20260902233504 27 107 19.3 27.4 0.00 0.00 0.00 29 1015.5
20260902233002 27 120 16.1 27.4 0.00 0.00 0.00 28 999.7
20260902232505 27 109 16.1 29.0 0.00 0.00 0.00 27 1015.4
20260902232006 27 128 20.9 29.0 0.00 0.00 0.00 27 1015.6
20260902231505 27 98 17.7 29.0 0.00 0.00 0.00 27 1015.6
20260902231005 27 115 17.7 27.4 0.00 0.00 0.00 29 1015.7
20260902230504 27 90 17.7 30.6 0.00 0.00 0.00 29 1015.6
20260902230003 26 117 16.1 33.8 0.00 0.00 0.00 31 999.9
20260902225504 27 110 20.9 29.0 0.00 0.00 0.00 30 1015.8
20260902225005 27 96 16.1 25.7 0.00 0.00 0.00 32 1015.8
20260902224505 27 102 20.9 33.8 0.00 0.00 0.00 30 1015.9
20260902224503 27 102 19.3 33.8 0.00 0.00 0.00 30 1000.1
20260902223504 27 84 14.5 29.0 0.00 0.00 0.00 30 1016.0
20260902223103 27 69 14.5 32.2 0.00 0.00 0.00 30 1000.3
20260902222505 27 113 22.5 32.2 0.00 0.00 0.00 30 1016.2
20260902222006 26 110 12.9 22.5 0.00 0.00 0.00 30 1016.3
20260902221506 26 65 17.7 22.5 0.00 0.00 0.00 30 1016.3
20260902221503 26 65 16.1 22.5 0.00 0.00 0.00 30 1000.4
20260902221004 26 75 14.5 22.5 0.00 0.00 0.00 31 1016.4
20260902220503 26 88 14.5 30.6 0.00 0.00 0.00 30 1016.5
20260902220006 27 126 19.3 30.6 0.00 0.00 0.00 27 1000.7
20260902215505 27 110 19.3 25.7 0.00 0.00 0.00 29 1016.5
20260902215006 27 62 14.5 24.1 0.00 0.00 0.00 29 1016.6
20260902214506 26 67 16.1 24.1 0.00 0.00 0.00 30 1016.7
20260902214502 26 67 16.1 24.1 0.00 0.00 0.00 30 1000.9
20260902214007 26 65 12.9 22.5 0.00 0.00 0.00 31 1016.8
20260902213504 26 80 14.5 29.0 0.00 0.00 0.00 30 1016.9
20260902213006 26 122 14.5 29.0 0.00 0.00 0.00 29 1016.9
20260902213004 26 122 14.5 29.0 0.00 0.00 0.00 29 1001.2
20260902212505 26 87 8.0 25.7 0.00 0.00 0.00 28 1016.9
20260902212005 26 126 11.3 25.7 0.00 0.00 0.00 30 1017.0
20260902211505 26 111 16.1 22.5 0.00 0.00 0.00 31 1001.4
20260902211001 26 86 14.5 20.9 0.00 0.00 0.00 32 1017.4
20260902210504 26 91 14.5 20.9 0.00 0.00 0.00 29 1017.4
20260902210006 26 75 11.3 20.9 0.00 0.00 0.00 31 1017.5
20260902205503 25 88 14.5 20.9 0.00 0.00 0.00 32 1017.6
20260902204505 25 85 8.0 20.9 0.00 0.00 0.00 32 1017.8
20260902204502 25 85 6.4 20.9 0.00 0.00 0.00 32 1002.0
20260902204005 25 109 8.0 20.9 0.00 0.00 0.00 32 1017.8
20260902203504 25 94 14.5 20.9 0.00 0.00 0.00 32 1017.9
20260902203003 25 94 11.3 22.5 0.00 0.00 0.00 30 1002.2
20260902202506 25 111 12.9 22.5 0.00 0.00 0.00 30 1018.0
20260902202005 25 82 11.3 19.3 0.00 0.00 0.00 31 1018.0
20260902201504 25 77 12.9 20.9 0.00 0.00 0.00 31 1018.0
20260902201502 25 77 11.3 20.9 0.00 0.00 0.00 31 1002.3
20260902200006 25 67 14.5 22.5 0.00 0.00 0.00 31 1018.2
20260902195503 25 77 11.3 22.5 0.00 0.00 0.00 29 1018.3
20260902195005 26 84 12.9 20.9 0.00 0.00 0.00 31 1018.2
20260902194504 26 40 6.4 17.7 0.00 0.00 0.00 29 1018.3
20260902194502 26 40 6.4 17.7 0.00 0.00 0.00 29 1002.6
20260902193505 26 119 9.7 20.9 0.00 0.00 0.00 29 1018.4
20260902193005 26 82 12.9 19.3 0.00 0.00 0.00 31 1018.3
20260902193002 26 82 12.9 19.3 0.00 0.00 0.00 31 1002.7
20260902192005 26 66 11.3 24.1 0.00 0.00 0.00 30 1018.5
20260902191504 26 42 11.3 20.9 0.00 0.00 0.00 31 1018.5
20260902191006 26 38 11.3 19.3 0.00 0.00 0.00 31 1018.7
20260902190504 26 86 11.3 19.3 0.00 0.00 0.00 31 1018.8
20260902190007 26 103 9.7 19.3 0.00 0.00 0.00 30 1018.9
20260902190003 26 103 9.7 19.3 0.00 0.00 0.00 30 1003.5
20260902185005 26 90 12.9 17.7 0.00 0.00 0.00 30 1019.1
20260902184602 26 40 8.0 22.5 0.00 0.00 0.00 29 1003.8
20260902184507 26 20 9.7 22.5 0.00 0.00 0.00 30 1003.8
20260902184505 26 20 11.3 22.5 0.00 0.00 0.00 30 1019.1
20260902184005 25 59 16.1 22.5 0.00 0.00 0.00 31 1019.2
20260902183504 25 74 3.2 12.9 0.00 0.00 0.00 31 1019.3
20260902183006 25 122 4.8 16.1 0.00 0.00 0.00 31 1019.4
20260902183003 25 122 4.8 16.1 0.00 0.00 0.00 31 1004.1
20260902182504 25 89 11.3 17.7 0.00 0.00 0.00 32 1019.4
20260902182005 25 87 12.9 17.7 0.00 0.00 0.00 31 1019.6
20260902181505 25 101 3.2 12.9 0.00 0.00 0.00 30 1019.7
20260902181502 25 101 1.6 12.9 0.00 0.00 0.00 30 1004.3
20260902181006 25 113 6.4 8.0 0.00 0.00 0.00 32 1019.7
20260902180504 25 127 3.2 17.7 0.00 0.00 0.00 30 1019.7
20260902180007 25 103 6.4 22.5 0.00 0.00 0.00 30 1019.8
20260902180005 25 103 4.8 22.5 0.00 0.00 0.00 30 1004.5
20260902175006 25 24 6.4 14.5 0.00 0.00 0.00 31 1019.9
20260902174502 25 14 6.4 16.1 0.00 0.00 0.00 32 1004.7
20260902174005 25 19 9.7 16.1 0.00 0.00 0.00 32 1020.1
20260902173006 24 75 6.4 12.9 0.00 0.00 0.00 35 1020.2
20260902173002 24 75 4.8 12.9 0.00 0.00 0.00 35 1004.9
20260902172504 24 78 4.8 12.9 0.00 0.00 0.00 35 1020.2
20260902172005 24 155 3.2 9.7 0.00 0.00 0.00 35 1020.2
20260902171504 24 88 6.4 16.1 0.00 0.00 0.00 34 1020.3
20260902171502 24 88 4.8 16.1 0.00 0.00 0.00 34 1005.0
20260902171000 24 136 11.3 16.1 0.00 0.00 0.00 34 1020.4
20260902170504 24 170 8.0 11.3 0.00 0.00 0.00 33 1020.4
20260902170006 24 15 1.6 9.7 0.00 0.00 0.00 33 1020.5
20260902170003 24 15 1.6 9.7 0.00 0.00 0.00 33 1005.2
20260902165505 23 48 6.4 12.9 0.00 0.00 0.00 34 1020.5
20260902165005 23 37 8.0 12.9 0.00 0.00 0.00 34 1020.4
20260902164504 24 69 6.4 12.9 0.00 0.00 0.00 34 1020.5
20260902164006 23 5 1.6 6.4 0.00 0.00 0.00 35 1020.5
20260902163503 23 360 3.2 8.0 0.00 0.00 0.00 35 1020.5
20260902163005 23 53 1.6 9.7 0.00 0.00 0.00 34 1020.5
20260902163002 23 53 1.6 9.7 0.00 0.00 0.00 34 1005.2
20260902162504 23 42 6.4 12.9 0.00 0.00 0.00 34 1020.5
20260902162005 23 50 8.0 12.9 0.00 0.00 0.00 35 1020.4
20260902161502 23 130 4.8 11.3 0.00 0.00 0.00 37 1005.2
20260902160503 23 43 4.8 16.1 0.00 0.00 0.00 36 1020.5
20260902160008 23 38 9.7 16.1 0.00 0.00 0.00 36 1020.5
20260902160004 23 38 8.0 16.1 0.00 0.00 0.00 36 1005.4
20260902155505 23 28 3.2 8.0 0.00 0.00 0.00 34 1020.5
20260902155005 23 327 1.6 6.4 0.00 0.00 0.00 35 1020.6
20260902154505 23 314 1.6 6.4 0.00 0.00 0.00 35 1005.6
20260902154005 23 34 3.2 4.8 0.00 0.00 0.00 37 1020.7
20260902153503 22 34 1.6 8.0 0.00 0.00 0.00 35 1020.8
20260902153005 22 34 3.2 8.0 0.00 0.00 0.00 36 1020.7
20260902153002 22 34 1.6 8.0 0.00 0.00 0.00 36 1005.7
20260902152505 22 17 3.2 8.0 0.00 0.00 0.00 35 1020.7
20260902152005 22 17 3.2 9.7 0.00 0.00 0.00 36 1020.7
20260902151504 22 17 4.8 9.7 0.00 0.00 0.00 37 1005.6
20260902151005 22 23 4.8 6.4 0.00 0.00 0.00 37 1020.7
20260902150505 22 23 3.2 4.8 0.00 0.00 0.00 39 1020.7
20260902150007 22 23 3.2 6.4 0.00 0.00 0.00 38 1020.6
20260902150002 22 23 1.6 6.4 0.00 0.00 0.00 38 1005.7
20260902145505 22 23 3.2 6.4 0.00 0.00 0.00 38 1020.5
20260902144506 21 23 1.6 4.8 0.00 0.00 0.00 44 1005.5
20260902144005 21 292 1.6 4.8 0.00 0.00 0.00 42 1020.5
20260902143504 20 257 1.6 3.2 0.00 0.00 0.00 46 1020.5
20260902143008 20 217 1.6 3.2 0.00 0.00 0.00 46 1020.5
20260902143005 20 217 1.6 3.2 0.00 0.00 0.00 46 1005.5
20260902142505 19 217 1.6 3.2 0.00 0.00 0.00 49 1020.5
20260902142005 19 217 1.6 3.2 0.00 0.00 0.00 51 1020.4
20260902141505 18 217 3.2 4.8 0.00 0.00 0.00 52 1020.4
20260902141503 18 217 1.6 4.8 0.00 0.00 0.00 52 1005.4
20260902141007 18 217 3.2 4.8 0.00 0.00 0.00 53 1020.4
20260902140504 18 217 1.6 3.2 0.00 0.00 0.00 54 1020.4
20260902140007 18 217 3.2 4.8 0.00 0.00 0.00 57 1020.3
20260902140003 18 217 1.6 4.8 0.00 0.00 0.00 57 1005.4
20260902135505 17 217 3.2 4.8 0.00 0.00 0.00 61 1020.4
20260902135005 17 217 0.0 0.0 0.00 0.00 0.00 61 1020.3
20260902134504 16 217 0.0 3.2 0.00 0.00 0.00 64 1005.4
20260902134005 15 217 1.6 3.2 0.00 0.00 0.00 65 1020.2
20260902133003 13 217 0.0 1.6 0.00 0.00 0.00 69 1005.3
20260902132504 13 217 0.0 4.8 0.00 0.00 0.00 70 1020.1
20260902132006 13 217 3.2 4.8 0.00 0.00 0.00 71 1020.0
20260902131503 12 202 3.2 4.8 0.00 0.00 0.00 73 1020.0
20260902131006 12 202 0.0 3.2 0.00 0.00 0.00 75 1019.9
20260902130505 11 202 1.6 3.2 0.00 0.00 0.00 75 1019.9
20260902130008 11 202 0.0 1.6 0.00 0.00 0.00 75 1019.8
20260902130002 11 202 0.0 1.6 0.00 0.00 0.00 75 1004.8
20260902125504 11 165 0.0 1.6 0.00 0.00 0.00 75 1019.8
20260902125005 11 161 0.0 3.2 0.00 0.00 0.00 74 1019.8
20260902124504 11 161 1.6 8.0 0.00 0.00 0.00 74 1019.7
20260902124502 11 161 0.0 8.0 0.00 0.00 0.00 74 1004.8
20260902124004 11 161 4.8 8.0 0.00 0.00 0.00 75 1019.6
20260902123505 11 161 3.2 3.2 0.00 0.00 0.00 75 1019.6
20260902123006 12 161 1.6 3.2 0.00 0.00 0.00 72 1019.5
20260902123002 12 161 1.6 3.2 0.00 0.00 0.00 72 1004.5
20260902122505 12 161 0.0 4.8 0.00 0.00 0.00 71 1019.4
20260902122004 12 161 1.6 8.0 0.00 0.00 0.00 71 1019.4
20260902121505 12 161 6.4 9.7 0.00 0.00 0.00 70 1019.4
20260902121502 12 161 6.4 9.7 0.00 0.00 0.00 70 1004.4
20260902121005 13 161 6.4 9.7 0.00 0.00 0.00 70 1019.2
20260902120504 12 161 4.8 8.0 0.00 0.00 0.00 70 1019.2